| time (UTC) | temp F | wind direction | speed knots | gust knots | rain 1hr in | rain 24hr in | rain mn in | humidity % | barometer mb |
| 20260507010225 | 66 | 82 | 2.6 | 4.3 | 0.00 | 0.00 | 0.00 | 81 | 1013.0 |
| 20260507005724 | 66 | 80 | 4.3 | 5.2 | 0.00 | 0.00 | 0.00 | 81 | 1013.0 |
| 20260507005224 | 67 | 93 | 3.5 | 5.2 | 0.00 | 0.00 | 0.00 | 80 | 1013.0 |
| 20260507004724 | 67 | 242 | 0.9 | 3.5 | 0.00 | 0.00 | 0.00 | 80 | 1013.0 |
| 20260507004223 | 67 | 62 | 1.7 | 3.5 | 0.00 | 0.00 | 0.00 | 80 | 1013.0 |
| 20260507003724 | 67 | 97 | 1.7 | 3.5 | 0.00 | 0.00 | 0.00 | 80 | 1013.0 |
| 20260507003224 | 68 | 75 | 1.7 | 3.5 | 0.00 | 0.00 | 0.00 | 80 | 1013.0 |
| 20260507002723 | 68 | 40 | 2.6 | 4.3 | 0.00 | 0.00 | 0.00 | 79 | 1013.0 |
| 20260507002224 | 68 | 99 | 4.3 | 5.2 | 0.00 | 0.00 | 0.00 | 79 | 1013.0 |
| 20260507001723 | 68 | 231 | 4.3 | 5.2 | 0.00 | 0.00 | 0.00 | 79 | 1013.0 |
| 20260507001223 | 68 | 149 | 1.7 | 5.2 | 0.00 | 0.00 | 0.00 | 79 | 1013.0 |
| 20260507000723 | 69 | 340 | 1.7 | 5.2 | 0.00 | 0.00 | 0.00 | 78 | 1013.0 |
| 20260507000224 | 69 | 248 | 0.9 | 3.5 | 0.00 | 0.00 | 0.00 | 79 | 1012.0 |
| 20260506235723 | 69 | 84 | 2.6 | 4.3 | 0.00 | 0.00 | 0.00 | 78 | 1013.0 |
| 20260506235224 | 70 | 89 | 2.6 | 6.1 | 0.00 | 0.00 | 0.00 | 78 | 1012.0 |
| 20260506234723 | 69 | 80 | 2.6 | 3.5 | 0.00 | 0.00 | 0.00 | 78 | 1012.0 |
| 20260506234224 | 70 | 87 | 2.6 | 4.3 | 0.00 | 0.00 | 0.00 | 77 | 1012.0 |
| 20260506233723 | 72 | 305 | 5.2 | 11.3 | 0.00 | 0.00 | 0.00 | 76 | 1012.0 |
| 20260506233224 | 71 | 89 | 2.6 | 3.5 | 0.00 | 0.00 | 0.00 | 77 | 1012.0 |
| 20260506232723 | 72 | 70 | 2.6 | 3.5 | 0.00 | 0.00 | 0.00 | 76 | 1012.0 |
| 20260506231745 | 73 | 70 | 3.5 | 6.1 | 0.00 | 0.00 | 0.00 | 75 | 1012.0 |
| 20260506231223 | 73 | 75 | 2.6 | 3.5 | 0.00 | 0.00 | 0.00 | 75 | 1012.0 |
| 20260506230723 | 73 | 86 | 2.6 | 4.3 | 0.00 | 0.00 | 0.00 | 75 | 1012.0 |
| 20260506230223 | 74 | 15 | 1.7 | 4.3 | 0.00 | 0.00 | 0.00 | 74 | 1012.0 |
| 20260506225724 | 74 | 105 | 4.3 | 6.1 | 0.00 | 0.00 | 0.00 | 73 | 1012.0 |
| 20260506225224 | 75 | 32 | 2.6 | 4.3 | 0.00 | 0.00 | 0.00 | 74 | 1012.0 |
| 20260506224723 | 75 | 35 | 2.6 | 5.2 | 0.00 | 0.00 | 0.00 | 74 | 1011.0 |
| 20260506224223 | 75 | 44 | 2.6 | 4.3 | 0.00 | 0.00 | 0.00 | 74 | 1011.0 |
| 20260506223723 | 76 | 66 | 4.3 | 7.0 | 0.00 | 0.00 | 0.00 | 73 | 1011.0 |
| 20260506223223 | 76 | 88 | 1.7 | 5.2 | 0.00 | 0.00 | 0.00 | 73 | 1011.0 |
| 20260506222723 | 77 | 67 | 1.7 | 4.3 | 0.00 | 0.00 | 0.00 | 73 | 1011.0 |
| 20260506222223 | 77 | 198 | 0.9 | 6.1 | 0.00 | 0.00 | 0.00 | 75 | 1011.0 |
| 20260506221723 | 78 | 72 | 2.6 | 6.1 | 0.00 | 0.00 | 0.00 | 74 | 1011.0 |
| 20260506221224 | 78 | 131 | 0.0 | 4.3 | 0.00 | 0.00 | 0.00 | 74 | 1011.0 |
| 20260506220723 | 78 | 104 | 1.7 | 5.2 | 0.00 | 0.00 | 0.00 | 73 | 1011.0 |
| 20260506220223 | 79 | 63 | 2.6 | 3.5 | 0.00 | 0.00 | 0.00 | 73 | 1011.0 |
| 20260506215723 | 79 | 42 | 2.6 | 4.3 | 0.00 | 0.00 | 0.00 | 73 | 1011.0 |
| 20260506215223 | 80 | 94 | 4.3 | 4.3 | 0.00 | 0.00 | 0.00 | 73 | 1011.0 |
| 20260506214724 | 81 | 63 | 2.6 | 5.2 | 0.00 | 0.00 | 0.00 | 72 | 1010.0 |
| 20260506214224 | 81 | 20 | 2.6 | 12.2 | 0.00 | 0.00 | 0.00 | 73 | 1011.0 |
| 20260506213724 | 83 | 61 | 3.5 | 7.8 | 0.00 | 0.00 | 0.00 | 71 | 1010.0 |
| 20260506213223 | 83 | 64 | 2.6 | 4.3 | 0.00 | 0.00 | 0.00 | 70 | 1010.0 |
| 20260506212723 | 82 | 87 | 1.7 | 3.5 | 0.00 | 0.00 | 0.00 | 71 | 1010.0 |
| 20260506212224 | 82 | 51 | 3.5 | 5.2 | 0.00 | 0.00 | 0.00 | 73 | 1011.0 |
| 20260506211724 | 82 | 43 | 1.7 | 4.3 | 0.00 | 0.00 | 0.00 | 75 | 1010.0 |
| 20260506211223 | 82 | 66 | 1.7 | 4.3 | 0.00 | 0.00 | 0.00 | 75 | 1010.0 |
| 20260506210723 | 82 | 87 | 1.7 | 6.1 | 0.00 | 0.00 | 0.00 | 75 | 1010.0 |
| 20260506210224 | 83 | 61 | 3.5 | 4.3 | 0.00 | 0.00 | 0.00 | 74 | 1011.0 |
| 20260506205723 | 83 | 0 | 1.7 | 4.3 | 0.00 | 0.00 | 0.00 | 74 | 1011.0 |
| 20260506205223 | 83 | 43 | 2.6 | 2.6 | 0.00 | 0.00 | 0.00 | 74 | 1011.0 |
| 20260506204723 | 84 | 195 | 0.0 | 2.6 | 0.00 | 0.00 | 0.00 | 73 | 1011.0 |
| 20260506204223 | 84 | 92 | 1.7 | 4.3 | 0.00 | 0.00 | 0.00 | 73 | 1011.0 |
| 20260506203723 | 84 | 92 | 1.7 | 4.3 | 0.00 | 0.00 | 0.00 | 73 | 1011.0 |
| 20260506203224 | 86 | 54 | 2.6 | 4.3 | 0.00 | 0.00 | 0.00 | 70 | 1011.0 |
| 20260506202723 | 86 | 54 | 2.6 | 4.3 | 0.00 | 0.00 | 0.00 | 70 | 1011.0 |
| 20260506202223 | 85 | 66 | 1.7 | 4.3 | 0.00 | 0.00 | 0.00 | 72 | 1011.0 |
| 20260506201723 | 85 | 66 | 1.7 | 4.3 | 0.00 | 0.00 | 0.00 | 72 | 1011.0 |
| 20260506201223 | 84 | 47 | 3.5 | 4.3 | 0.00 | 0.00 | 0.00 | 73 | 1011.0 |
| 20260506200724 | 84 | 47 | 3.5 | 4.3 | 0.00 | 0.00 | 0.00 | 73 | 1011.0 |
| 20260506200223 | 83 | 81 | 0.0 | 2.6 | 0.00 | 0.00 | 0.00 | 74 | 1011.0 |
| 20260506195723 | 83 | 41 | 2.6 | 4.3 | 0.00 | 0.00 | 0.00 | 75 | 1011.0 |
| 20260506195225 | 82 | 33 | 1.7 | 4.3 | 0.00 | 0.00 | 0.00 | 75 | 1011.0 |
| 20260506194725 | 83 | 34 | 4.3 | 5.2 | 0.00 | 0.00 | 0.00 | 74 | 1011.0 |
| 20260506194224 | 84 | 51 | 3.5 | 4.3 | 0.00 | 0.00 | 0.00 | 74 | 1011.0 |
| 20260506193723 | 82 | 44 | 0.0 | 4.3 | 0.00 | 0.00 | 0.00 | 76 | 1011.0 |
| 20260506193226 | 83 | 53 | 1.7 | 3.5 | 0.00 | 0.00 | 0.00 | 74 | 1011.0 |
| 20260506192725 | 82 | 139 | 0.9 | 3.5 | 0.00 | 0.00 | 0.00 | 77 | 1011.0 |
| 20260506192224 | 83 | 64 | 1.7 | 3.5 | 0.00 | 0.00 | 0.00 | 77 | 1011.0 |
| 20260506191726 | 82 | 87 | 2.6 | 4.3 | 0.00 | 0.00 | 0.00 | 77 | 1011.0 |
| 20260506191225 | 82 | 75 | 0.9 | 4.3 | 0.00 | 0.00 | 0.00 | 77 | 1012.0 |
| 20260506190726 | 81 | 98 | 2.6 | 4.3 | 0.00 | 0.00 | 0.00 | 77 | 1012.0 |
| 20260506190226 | 82 | 74 | 0.9 | 3.5 | 0.00 | 0.00 | 0.00 | 76 | 1011.0 |
| 20260506185723 | 81 | 95 | 0.0 | 3.5 | 0.00 | 0.00 | 0.00 | 77 | 1011.0 |
| 20260506185223 | 81 | 79 | 0.0 | 2.6 | 0.00 | 0.00 | 0.00 | 78 | 1012.0 |
| 20260506184724 | 81 | 7 | 1.7 | 2.6 | 0.00 | 0.00 | 0.00 | 78 | 1012.0 |
| 20260506184223 | 81 | 91 | 0.9 | 2.6 | 0.00 | 0.00 | 0.00 | 79 | 1012.0 |
| 20260506183723 | 82 | 44 | 5.2 | 5.2 | 0.00 | 0.00 | 0.00 | 76 | 1012.0 |
| 20260506183224 | 81 | 32 | 3.5 | 4.3 | 0.00 | 0.00 | 0.00 | 77 | 1012.0 |
| 20260506182724 | 83 | 94 | 1.7 | 4.3 | 0.00 | 0.00 | 0.00 | 72 | 1012.0 |
| 20260506182223 | 84 | 134 | 6.1 | 6.1 | 0.00 | 0.00 | 0.00 | 72 | 1012.0 |
| 20260506181725 | 82 | 115 | 1.7 | 2.6 | 0.00 | 0.00 | 0.00 | 78 | 1012.0 |
| 20260506181224 | 82 | 113 | 2.6 | 3.5 | 0.00 | 0.00 | 0.00 | 75 | 1012.0 |
| 20260506180723 | 82 | 80 | 1.7 | 2.6 | 0.00 | 0.00 | 0.00 | 77 | 1012.0 |
| 20260506180224 | 82 | 139 | 1.7 | 2.6 | 0.00 | 0.00 | 0.00 | 77 | 1012.0 |
| 20260506175724 | 82 | 56 | 0.0 | 2.6 | 0.00 | 0.00 | 0.00 | 76 | 1012.0 |
| 20260506175224 | 82 | 82 | 0.0 | 3.5 | 0.00 | 0.00 | 0.00 | 78 | 1012.0 |
| 20260506174729 | 81 | 2 | 0.0 | 4.3 | 0.00 | 0.00 | 0.00 | 79 | 1012.0 |
| 20260506174223 | 82 | 77 | 0.9 | 2.6 | 0.00 | 0.00 | 0.00 | 80 | 1012.0 |
| 20260506173724 | 80 | 171 | 0.0 | 2.6 | 0.00 | 0.00 | 0.00 | 82 | 1012.0 |
| 20260506173224 | 80 | 50 | 2.6 | 4.3 | 0.00 | 0.00 | 0.00 | 83 | 1012.0 |
| 20260506172724 | 80 | 61 | 1.7 | 2.6 | 0.00 | 0.00 | 0.00 | 84 | 1012.0 |
| 20260506172223 | 79 | 59 | 1.7 | 2.6 | 0.00 | 0.00 | 0.00 | 86 | 1012.0 |
| 20260506171723 | 78 | 54 | 1.7 | 2.6 | 0.00 | 0.00 | 0.00 | 88 | 1012.0 |
| 20260506171223 | 78 | 109 | 1.7 | 2.6 | 0.00 | 0.00 | 0.00 | 89 | 1013.0 |
| 20260506170723 | 77 | 86 | 0.9 | 3.5 | 0.00 | 0.00 | 0.00 | 90 | 1012.0 |
| 20260506170223 | 78 | 89 | 1.7 | 2.6 | 0.00 | 0.00 | 0.00 | 91 | 1012.0 |
| 20260506165723 | 77 | 102 | 2.6 | 2.6 | 0.00 | 0.00 | 0.00 | 92 | 1013.0 |
| 20260506165223 | 76 | 72 | 1.7 | 2.6 | 0.00 | 0.00 | 0.00 | 93 | 1012.0 |
| 20260506164723 | 77 | 59 | 1.7 | 2.6 | 0.00 | 0.00 | 0.00 | 94 | 1013.0 |
| 20260506164223 | 76 | 82 | 0.9 | 1.7 | 0.00 | 0.00 | 0.00 | 95 | 1013.0 |
| 20260506163723 | 75 | 61 | 2.6 | 2.6 | 0.00 | 0.00 | 0.00 | 95 | 1013.0 |
| 20260506163227 | 75 | 67 | 2.6 | 2.6 | 0.02 | 0.00 | 0.00 | 96 | 1013.0 |
| 20260506162723 | 75 | 52 | 3.5 | 4.3 | 0.02 | 0.00 | 0.00 | 96 | 1013.0 |
| 20260506162224 | 76 | 62 | 1.7 | 2.6 | 0.00 | 0.00 | 0.00 | 96 | 1013.0 |
| 20260506161723 | 75 | 41 | 1.7 | 3.5 | 0.00 | 0.00 | 0.00 | 96 | 1013.0 |
| 20260506161224 | 76 | 84 | 1.7 | 3.5 | 0.00 | 0.00 | 0.00 | 95 | 1013.0 |
| 20260506160724 | 76 | 55 | 1.7 | 2.6 | 0.00 | 0.00 | 0.00 | 95 | 1013.0 |
| 20260506160224 | 76 | 49 | 1.7 | 1.7 | 0.00 | 0.00 | 0.00 | 94 | 1013.0 |
| 20260506155723 | 77 | 156 | 0.0 | 1.7 | 0.00 | 0.00 | 0.00 | 93 | 1013.0 |
| 20260506155224 | 76 | 83 | 1.7 | 1.7 | 0.00 | 0.00 | 0.00 | 93 | 1012.0 |
| 20260506154724 | 75 | 75 | 0.0 | 1.7 | 0.00 | 0.00 | 0.00 | 93 | 1013.0 |
| 20260506154223 | 76 | 60 | 1.7 | 1.7 | 0.00 | 0.00 | 0.00 | 93 | 1012.0 |
| 20260506153726 | 76 | 88 | 0.9 | 2.6 | 0.00 | 0.00 | 0.00 | 94 | 1012.0 |
| 20260506153223 | 75 | 127 | 0.9 | 1.7 | 0.00 | 0.00 | 0.00 | 94 | 1012.0 |
| 20260506152724 | 76 | 71 | 1.7 | 2.6 | 0.00 | 0.00 | 0.00 | 94 | 1012.0 |
| 20260506152223 | 76 | 72 | 1.7 | 2.6 | 0.00 | 0.00 | 0.00 | 93 | 1012.0 |
| 20260506151723 | 76 | 185 | 0.0 | 1.7 | 0.00 | 0.00 | 0.00 | 94 | 1012.0 |
| 20260506151224 | 76 | 154 | 0.0 | 1.7 | 0.00 | 0.00 | 0.00 | 94 | 1012.0 |
| 20260506150725 | 76 | 40 | 0.0 | 1.7 | 0.00 | 0.00 | 0.00 | 94 | 1012.0 |
| 20260506150225 | 75 | 29 | 0.0 | 0.9 | 0.00 | 0.00 | 0.00 | 95 | 1012.0 |
| 20260506145724 | 75 | 84 | 0.9 | 0.9 | 0.00 | 0.00 | 0.00 | 95 | 1012.0 |
| 20260506145224 | 75 | 44 | 0.0 | 1.7 | 0.00 | 0.00 | 0.00 | 95 | 1012.0 |
| 20260506144723 | 75 | 80 | 0.9 | 1.7 | 0.00 | 0.00 | 0.00 | 95 | 1012.0 |
| 20260506144224 | 75 | 61 | 1.7 | 2.6 | 0.00 | 0.00 | 0.00 | 95 | 1012.0 |
| 20260506143723 | 75 | 89 | 1.7 | 1.7 | 0.00 | 0.00 | 0.00 | 95 | 1012.0 |
| 20260506143223 | 75 | 76 | 1.7 | 1.7 | 0.00 | 0.00 | 0.00 | 95 | 1012.0 |
| 20260506142723 | 75 | 73 | 0.9 | 2.6 | 0.00 | 0.00 | 0.00 | 95 | 1011.0 |
| 20260506142223 | 75 | 94 | 0.9 | 2.6 | 0.00 | 0.00 | 0.00 | 94 | 1011.0 |
| 20260506141724 | 75 | 66 | 1.7 | 2.6 | 0.00 | 0.00 | 0.00 | 94 | 1011.0 |
| 20260506141224 | 75 | 85 | 0.9 | 1.7 | 0.00 | 0.00 | 0.00 | 94 | 1011.0 |
| 20260506140723 | 75 | 123 | 0.9 | 2.6 | 0.00 | 0.00 | 0.00 | 94 | 1010.0 |
| 20260506140225 | 75 | 114 | 0.9 | 1.7 | 0.00 | 0.00 | 0.00 | 94 | 1011.0 |
| 20260506135724 | 75 | 76 | 0.9 | 1.7 | 0.00 | 0.00 | 0.00 | 94 | 1010.0 |
| 20260506135224 | 75 | 111 | 0.9 | 2.6 | 0.00 | 0.00 | 0.00 | 95 | 1010.0 |
| 20260506134724 | 75 | 101 | 1.7 | 2.6 | 0.00 | 0.00 | 0.00 | 95 | 1010.0 |
| 20260506134224 | 75 | 115 | 0.9 | 1.7 | 0.00 | 0.00 | 0.00 | 95 | 1010.0 |
| 20260506133723 | 75 | 91 | 1.7 | 2.6 | 0.00 | 0.00 | 0.00 | 95 | 1010.0 |
| 20260506133224 | 75 | 117 | 1.7 | 2.6 | 0.00 | 0.00 | 0.00 | 95 | 1010.0 |
| 20260506132723 | 75 | 82 | 3.5 | 3.5 | 0.00 | 0.00 | 0.00 | 95 | 1010.0 |
| 20260506132223 | 75 | 124 | 2.6 | 2.6 | 0.00 | 0.00 | 0.00 | 95 | 1010.0 |
| 20260506131724 | 75 | 139 | 2.6 | 2.6 | 0.00 | 0.00 | 0.00 | 95 | 1010.0 |
| 20260506131224 | 75 | 102 | 1.7 | 2.6 | 0.00 | 0.00 | 0.00 | 95 | 1010.0 |
| 20260506130727 | 75 | 74 | 1.7 | 3.5 | 0.00 | 0.00 | 0.00 | 95 | 1010.0 |
| 20260506130223 | 75 | 85 | 1.7 | 2.6 | 0.00 | 0.00 | 0.00 | 95 | 1010.0 |
| 20260506125724 | 74 | 67 | 1.7 | 1.7 | 0.00 | 0.00 | 0.00 | 96 | 1010.0 |
| 20260506125224 | 75 | 55 | 1.7 | 2.6 | 0.00 | 0.00 | 0.00 | 96 | 1010.0 |
| 20260506124723 | 74 | 110 | 0.9 | 2.6 | 0.00 | 0.00 | 0.00 | 96 | 1010.0 |
| 20260506124223 | 74 | 98 | 1.7 | 2.6 | 0.00 | 0.00 | 0.00 | 96 | 1010.0 |
| 20260506123724 | 74 | 156 | 2.6 | 3.5 | 0.00 | 0.00 | 0.00 | 96 | 1010.0 |
| 20260506123224 | 74 | 94 | 0.9 | 2.6 | 0.00 | 0.00 | 0.00 | 96 | 1010.0 |
| 20260506122723 | 74 | 80 | 1.7 | 1.7 | 0.00 | 0.00 | 0.00 | 96 | 1010.0 |
| 20260506122224 | 74 | 138 | 2.6 | 3.5 | 0.00 | 0.00 | 0.00 | 96 | 1010.0 |
| 20260506121723 | 74 | 89 | 0.0 | 2.6 | 0.00 | 0.00 | 0.00 | 96 | 1010.0 |
| 20260506121223 | 74 | 124 | 2.6 | 2.6 | 0.00 | 0.00 | 0.00 | 96 | 1010.0 |
| 20260506120723 | 74 | 116 | 2.6 | 2.6 | 0.00 | 0.00 | 0.00 | 96 | 1010.0 |
| 20260506120224 | 74 | 172 | 5.2 | 5.2 | 0.00 | 0.00 | 0.00 | 96 | 1010.0 |
| 20260506115724 | 74 | 135 | 2.6 | 3.5 | 0.00 | 0.00 | 0.00 | 96 | 1010.0 |
| 20260506115223 | 74 | 130 | 3.5 | 3.5 | 0.00 | 0.00 | 0.00 | 96 | 1010.0 |
| 20260506114723 | 74 | 146 | 3.5 | 5.2 | 0.00 | 0.00 | 0.00 | 95 | 1010.0 |
| 20260506114223 | 74 | 109 | 1.7 | 3.5 | 0.00 | 0.00 | 0.00 | 96 | 1010.0 |
| 20260506113724 | 74 | 150 | 2.6 | 5.2 | 0.00 | 0.00 | 0.00 | 95 | 1009.0 |
| 20260506113224 | 75 | 137 | 2.6 | 5.2 | 0.00 | 0.00 | 0.00 | 95 | 1010.0 |
| 20260506112725 | 75 | 139 | 4.3 | 4.3 | 0.00 | 0.00 | 0.00 | 95 | 1009.0 |
| 20260506112226 | 75 | 121 | 2.6 | 5.2 | 0.00 | 0.00 | 0.00 | 95 | 1010.0 |
| 20260506111726 | 75 | 115 | 1.7 | 2.6 | 0.00 | 0.00 | 0.00 | 95 | 1009.0 |
| 20260506111226 | 75 | 112 | 0.0 | 2.6 | 0.00 | 0.00 | 0.00 | 95 | 1010.0 |
| 20260506110724 | 75 | 162 | 2.6 | 3.5 | 0.00 | 0.00 | 0.00 | 95 | 1010.0 |
| 20260506110228 | 75 | 162 | 2.6 | 4.3 | 0.00 | 0.00 | 0.00 | 95 | 1009.0 |
| 20260506105725 | 75 | 121 | 1.7 | 2.6 | 0.00 | 0.00 | 0.00 | 95 | 1009.0 |
| 20260506105223 | 75 | 158 | 0.9 | 2.6 | 0.00 | 0.00 | 0.00 | 95 | 1009.0 |
| 20260506104723 | 75 | 129 | 2.6 | 2.6 | 0.00 | 0.00 | 0.00 | 95 | 1010.0 |
| 20260506104223 | 75 | 129 | 1.7 | 2.6 | 0.00 | 0.00 | 0.00 | 95 | 1010.0 |
| 20260506103725 | 75 | 136 | 1.7 | 1.7 | 0.00 | 0.00 | 0.00 | 95 | 1010.0 |
| 20260506103225 | 75 | 129 | 1.7 | 2.6 | 0.00 | 0.00 | 0.00 | 95 | 1009.0 |
| 20260506102725 | 75 | 151 | 3.5 | 3.5 | 0.00 | 0.00 | 0.00 | 95 | 1009.0 |
| 20260506102223 | 75 | 157 | 3.5 | 3.5 | 0.00 | 0.00 | 0.00 | 95 | 1009.0 |
| 20260506101723 | 75 | 143 | 1.7 | 2.6 | 0.00 | 0.00 | 0.00 | 95 | 1009.0 |
| 20260506101225 | 75 | 175 | 2.6 | 4.3 | 0.00 | 0.00 | 0.00 | 95 | 1009.0 |
| 20260506100725 | 75 | 139 | 4.3 | 4.3 | 0.00 | 0.00 | 0.00 | 95 | 1009.0 |
| 20260506100225 | 75 | 138 | 3.5 | 3.5 | 0.00 | 0.00 | 0.00 | 95 | 1009.0 |
| 20260506095724 | 75 | 159 | 4.3 | 5.2 | 0.00 | 0.00 | 0.00 | 95 | 1009.0 |
| 20260506095224 | 75 | 123 | 1.7 | 2.6 | 0.00 | 0.00 | 0.00 | 95 | 1009.0 |
| 20260506094723 | 75 | 160 | 1.7 | 5.2 | 0.00 | 0.00 | 0.00 | 95 | 1009.0 |
| 20260506094223 | 75 | 175 | 1.7 | 5.2 | 0.00 | 0.00 | 0.00 | 95 | 1009.0 |
| 20260506093723 | 75 | 154 | 2.6 | 4.3 | 0.00 | 0.00 | 0.00 | 94 | 1009.0 |
| 20260506093223 | 75 | 166 | 4.3 | 7.0 | 0.00 | 0.00 | 0.00 | 94 | 1008.0 |
| 20260506092723 | 75 | 148 | 6.1 | 9.6 | 0.00 | 0.00 | 0.00 | 94 | 1009.0 |
| 20260506092224 | 75 | 148 | 3.5 | 5.2 | 0.00 | 0.00 | 0.00 | 94 | 1009.0 |
| 20260506091723 | 75 | 126 | 5.2 | 7.8 | 0.00 | 0.00 | 0.00 | 94 | 1009.0 |
| 20260506091226 | 75 | 176 | 4.3 | 5.2 | 0.00 | 0.00 | 0.00 | 94 | 1009.0 |
| 20260506090725 | 75 | 119 | 2.6 | 5.2 | 0.00 | 0.00 | 0.00 | 93 | 1009.0 |
| 20260506090224 | 75 | 156 | 3.5 | 4.3 | 0.00 | 0.00 | 0.00 | 93 | 1009.0 |
| 20260506085723 | 75 | 134 | 3.5 | 5.2 | 0.00 | 0.00 | 0.00 | 93 | 1009.0 |
| 20260506085224 | 75 | 138 | 7.8 | 7.8 | 0.00 | 0.00 | 0.00 | 93 | 1009.0 |
| 20260506084723 | 75 | 160 | 2.6 | 5.2 | 0.00 | 0.00 | 0.00 | 93 | 1009.0 |
| 20260506084223 | 75 | 127 | 3.5 | 6.1 | 0.00 | 0.00 | 0.00 | 93 | 1009.0 |
| 20260506083724 | 75 | 120 | 2.6 | 5.2 | 0.00 | 0.00 | 0.00 | 93 | 1009.0 |
| 20260506083223 | 75 | 109 | 2.6 | 5.2 | 0.00 | 0.00 | 0.00 | 93 | 1009.0 |
| 20260506082723 | 75 | 167 | 2.6 | 7.0 | 0.00 | 0.00 | 0.00 | 92 | 1009.0 |
| 20260506082223 | 75 | 146 | 4.3 | 5.2 | 0.00 | 0.00 | 0.00 | 92 | 1009.0 |
| 20260506081723 | 76 | 150 | 6.1 | 6.1 | 0.00 | 0.00 | 0.00 | 92 | 1009.0 |
| 20260506081223 | 76 | 153 | 2.6 | 5.2 | 0.00 | 0.00 | 0.00 | 92 | 1009.0 |
| 20260506080724 | 76 | 152 | 4.3 | 7.0 | 0.00 | 0.00 | 0.00 | 92 | 1009.0 |
| 20260506080223 | 76 | 131 | 7.0 | 8.7 | 0.00 | 0.00 | 0.00 | 92 | 1009.0 |
| 20260506073223 | 76 | 154 | 2.6 | 6.1 | 0.00 | 0.00 | 0.00 | 92 | 1009.0 |
| 20260506072723 | 76 | 149 | 3.5 | 7.8 | 0.00 | 0.00 | 0.00 | 91 | 1009.0 |
| 20260506072224 | 76 | 130 | 7.8 | 8.7 | 0.00 | 0.00 | 0.00 | 91 | 1009.0 |
| 20260506071727 | 76 | 133 | 5.2 | 6.1 | 0.00 | 0.00 | 0.00 | 92 | 1009.0 |
| 20260506071224 | 76 | 161 | 2.6 | 5.2 | 0.00 | 0.00 | 0.00 | 92 | 1009.0 |
| 20260506070723 | 76 | 145 | 5.2 | 7.0 | 0.00 | 0.00 | 0.00 | 92 | 1009.0 |
| 20260506070223 | 76 | 103 | 1.7 | 6.1 | 0.00 | 0.00 | 0.00 | 92 | 1009.0 |
| 20260506062223 | 76 | 141 | 3.5 | 9.6 | 0.00 | 0.00 | 0.00 | 92 | 1010.0 |
| 20260506061723 | 76 | 147 | 2.6 | 5.2 | 0.00 | 0.00 | 0.00 | 92 | 1009.0 |
| 20260506061223 | 76 | 120 | 5.2 | 9.6 | 0.00 | 0.00 | 0.00 | 92 | 1009.0 |
| 20260506060723 | 76 | 114 | 2.6 | 7.0 | 0.00 | 0.00 | 0.00 | 91 | 1009.0 |
| 20260506060223 | 76 | 130 | 3.5 | 9.6 | 0.00 | 0.00 | 0.00 | 91 | 1009.0 |
| 20260506051223 | 76 | 116 | 1.7 | 4.3 | 0.00 | 0.00 | 0.00 | 91 | 1009.0 |
| 20260506050724 | 76 | 106 | 2.6 | 5.2 | 0.00 | 0.00 | 0.00 | 91 | 1009.0 |
| 20260506050224 | 76 | 139 | 6.1 | 7.0 | 0.00 | 0.00 | 0.00 | 91 | 1009.0 |
| 20260506044723 | 77 | 102 | 2.6 | 5.2 | 0.00 | 0.00 | 0.00 | 90 | 1009.0 |
| 20260506044224 | 77 | 114 | 3.5 | 7.0 | 0.00 | 0.00 | 0.00 | 90 | 1010.0 |
| 20260506043724 | 77 | 120 | 2.6 | 6.1 | 0.00 | 0.00 | 0.00 | 90 | 1010.0 |
| 20260506043224 | 77 | 106 | 3.5 | 6.1 | 0.00 | 0.00 | 0.00 | 90 | 1010.0 |
| 20260506042723 | 77 | 111 | 2.6 | 5.2 | 0.00 | 0.00 | 0.00 | 90 | 1010.0 |
| 20260506042223 | 77 | 121 | 2.6 | 8.7 | 0.00 | 0.00 | 0.00 | 90 | 1009.0 |
| 20260506041724 | 77 | 116 | 5.2 | 7.8 | 0.00 | 0.00 | 0.00 | 90 | 1009.0 |
| 20260506041224 | 77 | 166 | 3.5 | 7.8 | 0.00 | 0.00 | 0.00 | 90 | 1009.0 |
| 20260506040723 | 77 | 142 | 3.5 | 6.1 | 0.00 | 0.00 | 0.00 | 90 | 1009.0 |
| 20260506040224 | 77 | 113 | 2.6 | 6.1 | 0.00 | 0.00 | 0.00 | 90 | 1009.0 |
| 20260506035724 | 77 | 144 | 6.1 | 7.8 | 0.00 | 0.00 | 0.00 | 90 | 1009.0 |
| 20260506035223 | 77 | 139 | 4.3 | 7.8 | 0.00 | 0.00 | 0.00 | 90 | 1009.0 |
| 20260506034723 | 77 | 129 | 2.6 | 4.3 | 0.00 | 0.00 | 0.00 | 90 | 1009.0 |
| 20260506034223 | 77 | 136 | 5.2 | 5.2 | 0.00 | 0.00 | 0.00 | 90 | 1009.0 |
| 20260506033724 | 77 | 82 | 2.6 | 6.1 | 0.00 | 0.00 | 0.00 | 90 | 1009.0 |
| 20260506033223 | 77 | 116 | 1.7 | 4.3 | 0.00 | 0.00 | 0.00 | 90 | 1009.0 |
| 20260506032723 | 77 | 137 | 4.3 | 7.0 | 0.00 | 0.00 | 0.00 | 89 | 1009.0 |
| 20260506032223 | 77 | 114 | 3.5 | 7.0 | 0.00 | 0.00 | 0.00 | 89 | 1009.0 |
| 20260506031723 | 77 | 104 | 2.6 | 5.2 | 0.00 | 0.00 | 0.00 | 89 | 1009.0 |
| 20260506031223 | 77 | 95 | 2.6 | 6.1 | 0.00 | 0.00 | 0.00 | 89 | 1009.0 |
| 20260506030723 | 78 | 142 | 4.3 | 6.1 | 0.00 | 0.00 | 0.00 | 88 | 1008.0 |
| 20260506030223 | 78 | 133 | 7.0 | 7.8 | 0.00 | 0.00 | 0.00 | 88 | 1008.0 |
| 20260506025724 | 78 | 124 | 2.6 | 5.2 | 0.00 | 0.00 | 0.00 | 88 | 1008.0 |
| 20260506025223 | 78 | 139 | 8.7 | 9.6 | 0.00 | 0.00 | 0.00 | 88 | 1008.0 |
| 20260506024234 | 78 | 160 | 7.0 | 10.4 | 0.00 | 0.00 | 0.00 | 87 | 1008.0 |
| 20260506023723 | 79 | 108 | 3.5 | 10.4 | 0.00 | 0.00 | 0.00 | 86 | 1008.0 |
| 20260506023224 | 79 | 106 | 2.6 | 8.7 | 0.00 | 0.00 | 0.00 | 86 | 1008.0 |
| 20260506022723 | 79 | 125 | 7.8 | 10.4 | 0.00 | 0.00 | 0.00 | 85 | 1008.0 |
| 20260506022225 | 80 | 123 | 7.0 | 10.4 | 0.00 | 0.00 | 0.00 | 85 | 1008.0 |
| 20260506021723 | 80 | 132 | 7.8 | 8.7 | 0.00 | 0.00 | 0.00 | 84 | 1008.0 |
| 20260506021226 | 80 | 117 | 6.1 | 6.1 | 0.00 | 0.00 | 0.00 | 84 | 1008.0 |
| 20260506020723 | 80 | 153 | 3.5 | 8.7 | 0.00 | 0.00 | 0.00 | 84 | 1008.0 |
| 20260506020223 | 81 | 128 | 2.6 | 3.5 | 0.00 | 0.00 | 0.00 | 83 | 1008.0 |
| 20260506015723 | 81 | 115 | 3.5 | 6.1 | 0.00 | 0.00 | 0.00 | 83 | 1008.0 |
| 20260506015224 | 81 | 123 | 4.3 | 10.4 | 0.00 | 0.00 | 0.00 | 82 | 1008.0 |
| 20260506014723 | 81 | 143 | 3.5 | 6.1 | 0.00 | 0.00 | 0.00 | 82 | 1007.0 |
| 20260506014223 | 82 | 134 | 4.3 | 5.2 | 0.00 | 0.00 | 0.00 | 81 | 1007.0 |
| 20260506013723 | 82 | 100 | 2.6 | 8.7 | 0.00 | 0.00 | 0.00 | 80 | 1007.0 |
| 20260506013224 | 82 | 123 | 1.7 | 7.0 | 0.00 | 0.00 | 0.00 | 79 | 1007.0 |
| 20260506012723 | 82 | 120 | 2.6 | 7.8 | 0.00 | 0.00 | 0.00 | 78 | 1007.0 |
| 20260506012224 | 83 | 113 | 2.6 | 4.3 | 0.00 | 0.00 | 0.00 | 78 | 1007.0 |
| 20260506011724 | 83 | 101 | 2.6 | 2.6 | 0.00 | 0.00 | 0.00 | 77 | 1007.0 |
| 20260506011225 | 83 | 134 | 4.3 | 5.2 | 0.00 | 0.00 | 0.00 | 76 | 1007.0 |
| 20260506010723 | 83 | 112 | 2.6 | 4.3 | 0.00 | 0.00 | 0.00 | 76 | 1007.0 |